Time,TemperatureF,DewpointF,PressureIn,WindDirection,WindDirectionDegrees,WindSpeedMPH,WindSpeedGustMPH,Humidity,HourlyPrecipIn,Conditions,Clouds,dailyrainin,SoftwareType,DateUTC
2013-10-15 00:11:00,73.9,73.3,29.82,WNW,292,0.0,-999.0,98,-99.99,,,0.00,Acu-Link.com,2013-10-15 04:11:00,
2013-10-15 00:27:00,73.4,72.8,29.83,WNW,292,0.0,-999.0,98,-99.99,,,0.00,Acu-Link.com,2013-10-15 04:27:00,
2013-10-15 00:42:00,72.9,72.3,29.81,WNW,292,0.0,-999.0,98,-99.99,,,0.00,Acu-Link.com,2013-10-15 04:42:00,
2013-10-15 00:58:00,72.5,71.9,29.81,WNW,292,0.0,-999.0,98,-99.99,,,0.00,Acu-Link.com,2013-10-15 04:58:00,
2013-10-15 01:13:00,74.3,73.7,29.81,WNW,292,0.0,-999.0,98,-99.99,,,0.00,Acu-Link.com,2013-10-15 05:13:00,
2013-10-15 01:29:00,73.6,73.0,29.81,NW,315,0.0,-999.0,98,-99.99,,,0.00,Acu-Link.com,2013-10-15 05:29:00,
2013-10-15 01:44:00,73.4,72.8,29.81,NNW,337,0.0,-999.0,98,-99.99,,,0.00,Acu-Link.com,2013-10-15 05:44:00,
2013-10-15 01:59:00,73.2,72.6,29.81,NE,45,0.0,-999.0,98,-99.99,,,0.00,Acu-Link.com,2013-10-15 05:59:00,
2013-10-15 02:16:00,73.2,72.6,29.80,NE,45,0.0,-999.0,98,-99.99,,,0.00,Acu-Link.com,2013-10-15 06:16:00,
2013-10-15 02:31:00,73.0,72.4,29.81,NNE,22,0.0,-999.0,98,-99.99,,,0.00,Acu-Link.com,2013-10-15 06:31:00,
2013-10-15 02:47:00,73.2,72.6,29.80,West,270,0.0,-999.0,98,-99.99,,,0.00,Acu-Link.com,2013-10-15 06:47:00,
2013-10-15 03:03:00,75.6,75.0,29.80,WNW,292,0.0,-999.0,98,-99.99,,,0.00,Acu-Link.com,2013-10-15 07:03:00,
2013-10-15 03:18:00,73.6,73.0,29.79,WNW,292,0.0,-999.0,98,-99.99,,,0.00,Acu-Link.com,2013-10-15 07:18:00,
2013-10-15 03:34:00,73.0,72.4,29.79,WNW,292,0.0,-999.0,98,-99.99,,,0.00,Acu-Link.com,2013-10-15 07:34:00,
2013-10-15 03:49:00,72.9,72.3,29.78,North,0,0.0,-999.0,98,-99.99,,,0.00,Acu-Link.com,2013-10-15 07:49:00,
2013-10-15 04:05:00,72.7,72.1,29.78,North,0,0.0,-999.0,98,-99.99,,,0.00,Acu-Link.com,2013-10-15 08:05:00,
2013-10-15 04:20:00,72.3,71.7,29.77,North,0,0.0,-999.0,98,-99.99,,,0.00,Acu-Link.com,2013-10-15 08:20:00,
2013-10-15 04:36:00,72.5,71.9,29.77,North,0,0.0,-999.0,98,-99.99,,,0.00,Acu-Link.com,2013-10-15 08:36:00,
2013-10-15 04:52:00,75.4,74.8,29.78,North,0,1.7,-999.0,98,-99.99,,,0.00,Acu-Link.com,2013-10-15 08:52:00,
2013-10-15 05:07:00,72.9,72.3,29.77,WNW,292,0.0,-999.0,98,-99.99,,,0.00,Acu-Link.com,2013-10-15 09:07:00,
2013-10-15 05:22:00,72.3,71.7,29.77,NE,45,0.0,-999.0,98,-99.99,,,0.00,Acu-Link.com,2013-10-15 09:22:00,
2013-10-15 05:37:00,72.1,71.5,29.77,NE,45,0.0,-999.0,98,-99.99,,,0.00,Acu-Link.com,2013-10-15 09:37:00,
2013-10-15 05:52:00,74.7,74.1,29.79,NW,315,2.2,-999.0,98,-99.99,,,0.00,Acu-Link.com,2013-10-15 09:52:00,
2013-10-15 06:08:00,72.7,72.1,29.77,NE,45,0.0,-999.0,98,-99.99,,,0.00,Acu-Link.com,2013-10-15 10:08:00,
2013-10-15 06:23:00,72.1,71.5,29.78,NE,45,0.0,-999.0,98,-99.99,,,0.00,Acu-Link.com,2013-10-15 10:23:00,
2013-10-15 06:38:00,72.0,71.4,29.79,NE,45,0.0,-999.0,98,-99.99,,,0.00,Acu-Link.com,2013-10-15 10:38:00,
2013-10-15 06:53:00,71.8,71.2,29.79,NE,45,0.0,-999.0,98,-99.99,,,0.00,Acu-Link.com,2013-10-15 10:53:00,
2013-10-15 07:09:00,71.6,71.0,29.79,NE,45,1.1,-999.0,98,-99.99,,,0.00,Acu-Link.com,2013-10-15 11:09:00,
2013-10-15 07:24:00,73.9,73.3,29.79,NNW,337,2.7,-999.0,98,-99.99,,,0.00,Acu-Link.com,2013-10-15 11:24:00,
2013-10-15 07:39:00,72.3,71.7,29.79,NE,45,2.7,-999.0,98,-99.99,,,0.00,Acu-Link.com,2013-10-15 11:39:00,
2013-10-15 07:55:00,72.9,72.3,29.81,NE,45,4.2,-999.0,98,-99.99,,,0.00,Acu-Link.com,2013-10-15 11:55:00,
2013-10-15 08:10:00,74.5,73.9,29.81,NE,45,2.7,-999.0,98,-99.99,,,0.00,Acu-Link.com,2013-10-15 12:10:00,
2013-10-15 08:26:00,76.1,75.5,29.82,NE,45,4.7,-999.0,98,-99.99,,,0.00,Acu-Link.com,2013-10-15 12:26:00,
2013-10-15 08:41:00,76.3,75.7,29.81,NNE,22,4.2,-999.0,98,-99.99,,,0.00,Acu-Link.com,2013-10-15 12:41:00,
2013-10-15 08:56:00,77.4,76.8,29.82,NNE,22,0.0,-999.0,98,-99.99,,,0.00,Acu-Link.com,2013-10-15 12:56:00,
2013-10-15 09:12:00,77.5,76.9,29.83,West,270,0.0,-999.0,98,-99.99,,,0.00,Acu-Link.com,2013-10-15 13:12:00,
2013-10-15 09:27:00,79.5,78.9,29.82,NE,45,2.7,-999.0,98,-99.99,,,0.00,Acu-Link.com,2013-10-15 13:27:00,
2013-10-15 09:42:00,80.6,80.0,29.83,NE,45,6.3,-999.0,98,-99.99,,,0.00,Acu-Link.com,2013-10-15 13:42:00,
2013-10-15 09:58:00,81.9,81.3,29.83,NE,45,4.2,-999.0,98,-99.99,,,0.00,Acu-Link.com,2013-10-15 13:58:00,
2013-10-15 10:13:00,82.6,82.0,29.83,NNE,22,0.0,-999.0,98,-99.99,,,0.00,Acu-Link.com,2013-10-15 14:13:00,
2013-10-15 10:28:00,83.5,82.9,29.83,NE,45,4.7,-999.0,98,-99.99,,,0.00,Acu-Link.com,2013-10-15 14:28:00,
2013-10-15 10:43:00,83.1,82.5,29.82,NE,45,4.2,-999.0,98,-99.99,,,0.00,Acu-Link.com,2013-10-15 14:43:00,
2013-10-15 10:58:00,83.3,82.0,29.81,NE,45,2.7,-999.0,96,-99.99,,,0.00,Acu-Link.com,2013-10-15 14:58:00,
2013-10-15 11:14:00,85.3,77.6,29.82,NE,45,5.8,-999.0,78,-99.99,,,0.00,Acu-Link.com,2013-10-15 15:14:00,
2013-10-15 11:29:00,85.6,78.7,29.82,East,90,2.7,-999.0,80,-99.99,,,0.00,Acu-Link.com,2013-10-15 15:29:00,
2013-10-15 11:44:00,85.5,75.8,29.82,NE,45,3.2,-999.0,73,-99.99,,,0.00,Acu-Link.com,2013-10-15 15:44:00,
2013-10-15 11:59:00,85.1,75.4,29.82,ESE,112,3.2,-999.0,73,-99.99,,,0.00,Acu-Link.com,2013-10-15 15:59:00,
2013-10-15 12:15:00,87.6,74.8,29.81,NE,45,4.2,-999.0,66,-99.99,,,0.00,Acu-Link.com,2013-10-15 16:15:00,
2013-10-15 12:30:00,89.1,72.4,29.80,NE,45,1.1,-999.0,58,-99.99,,,0.00,Acu-Link.com,2013-10-15 16:30:00,
2013-10-15 12:46:00,86.5,72.4,29.79,NNE,22,4.7,-999.0,63,-99.99,,,0.00,Acu-Link.com,2013-10-15 16:46:00,
2013-10-15 13:01:00,85.8,72.6,29.79,NE,45,5.8,-999.0,65,-99.99,,,0.00,Acu-Link.com,2013-10-15 17:01:00,
2013-10-15 13:16:00,91.2,71.6,29.77,ENE,67,2.7,-999.0,53,-99.99,,,0.00,Acu-Link.com,2013-10-15 17:16:00,
2013-10-15 13:31:00,90.7,70.0,29.77,ESE,112,4.7,-999.0,51,-99.99,,,0.00,Acu-Link.com,2013-10-15 17:31:00,
2013-10-15 13:46:00,90.9,68.5,29.77,ESE,112,2.7,-999.0,48,-99.99,,,0.00,Acu-Link.com,2013-10-15 17:46:00,
2013-10-15 14:02:00,89.8,69.8,29.78,NNE,22,6.8,-999.0,52,-99.99,,,0.00,Acu-Link.com,2013-10-15 18:02:00,
2013-10-15 14:17:00,91.0,68.5,29.76,East,90,5.3,-999.0,48,-99.99,,,0.00,Acu-Link.com,2013-10-15 18:17:00,
2013-10-15 14:32:00,91.0,67.3,29.75,NNE,22,4.2,-999.0,46,-99.99,,,0.00,Acu-Link.com,2013-10-15 18:32:00,
2013-10-15 14:47:00,89.8,69.8,29.73,East,90,5.3,-999.0,52,-99.99,,,0.00,Acu-Link.com,2013-10-15 18:47:00,
2013-10-15 15:03:00,89.1,68.0,29.74,ENE,67,2.7,-999.0,50,-99.99,,,0.00,Acu-Link.com,2013-10-15 19:03:00,
2013-10-15 15:18:00,90.7,67.7,29.75,ESE,112,4.7,-999.0,47,-99.99,,,0.00,Acu-Link.com,2013-10-15 19:18:00,
2013-10-15 15:33:00,89.1,68.0,29.74,NE,45,4.7,-999.0,50,-99.99,,,0.00,Acu-Link.com,2013-10-15 19:33:00,
2013-10-15 15:48:00,88.9,69.5,29.74,SE,135,2.2,-999.0,53,-99.99,,,0.00,Acu-Link.com,2013-10-15 19:48:00,
2013-10-15 16:03:00,88.3,69.5,29.73,ENE,67,2.2,-999.0,54,-99.99,,,0.00,Acu-Link.com,2013-10-15 20:03:00,
2013-10-15 16:19:00,90.0,68.8,29.74,NNE,22,1.7,-999.0,50,-99.99,,,0.00,Acu-Link.com,2013-10-15 20:19:00,
2013-10-15 16:34:00,87.6,69.9,29.74,ESE,112,5.8,-999.0,56,-99.99,,,0.00,Acu-Link.com,2013-10-15 20:34:00,
2013-10-15 16:49:00,86.0,70.0,29.74,ESE,112,4.2,-999.0,59,-99.99,,,0.00,Acu-Link.com,2013-10-15 20:49:00,
2013-10-15 17:04:00,86.9,70.8,29.74,East,90,3.7,-999.0,59,-99.99,,,0.00,Acu-Link.com,2013-10-15 21:04:00,
2013-10-15 17:20:00,85.1,71.1,29.74,East,90,8.9,-999.0,63,-99.99,,,0.00,Acu-Link.com,2013-10-15 21:20:00,
2013-10-15 17:35:00,85.1,71.5,29.75,East,90,3.7,-999.0,64,-99.99,,,0.00,Acu-Link.com,2013-10-15 21:35:00,
2013-10-15 17:50:00,84.7,71.1,29.75,ENE,67,2.2,-999.0,64,-99.99,,,0.00,Acu-Link.com,2013-10-15 21:50:00,
2013-10-15 18:05:00,83.8,70.3,29.75,ESE,112,5.3,-999.0,64,-99.99,,,0.00,Acu-Link.com,2013-10-15 22:05:00,
2013-10-15 18:21:00,83.5,69.1,29.76,East,90,4.2,-999.0,62,-99.99,,,0.00,Acu-Link.com,2013-10-15 22:21:00,
2013-10-15 18:36:00,82.2,69.7,29.77,SSE,157,3.7,-999.0,66,-99.99,,,0.00,Acu-Link.com,2013-10-15 22:36:00,
2013-10-15 18:51:00,81.5,69.5,29.76,East,90,0.0,-999.0,67,-99.99,,,0.00,Acu-Link.com,2013-10-15 22:51:00,
2013-10-15 19:06:00,81.5,69.5,29.75,ENE,67,0.0,-999.0,67,-99.99,,,0.00,Acu-Link.com,2013-10-15 23:06:00,
2013-10-15 19:22:00,81.0,71.9,29.77,NW,315,0.0,-999.0,74,-99.99,,,0.00,Acu-Link.com,2013-10-15 23:22:00,
2013-10-15 19:37:00,80.2,72.3,29.76,East,90,0.0,-999.0,77,-99.99,,,0.00,Acu-Link.com,2013-10-15 23:37:00,
2013-10-15 19:52:00,81.7,72.2,29.76,ESE,112,0.0,-999.0,73,-99.99,,,0.00,Acu-Link.com,2013-10-15 23:52:00,
2013-10-15 20:08:00,81.1,74.0,29.77,NW,315,0.0,-999.0,79,-99.99,,,0.00,Acu-Link.com,2013-10-16 00:08:00,
2013-10-15 20:23:00,79.9,73.5,29.77,NNE,22,0.0,-999.0,81,-99.99,,,0.00,Acu-Link.com,2013-10-16 00:23:00,
2013-10-15 20:38:00,80.2,74.2,29.78,NW,315,0.0,-999.0,82,-99.99,,,0.00,Acu-Link.com,2013-10-16 00:38:00,
2013-10-15 20:53:00,81.3,73.4,29.80,WNW,292,0.0,-999.0,77,-99.99,,,0.00,Acu-Link.com,2013-10-16 00:53:00,
2013-10-15 21:09:00,81.0,74.6,29.80,NW,315,1.1,-999.0,81,-99.99,,,0.00,Acu-Link.com,2013-10-16 01:09:00,
2013-10-15 21:24:00,79.0,74.8,29.80,WNW,292,0.0,-999.0,87,-99.99,,,0.00,Acu-Link.com,2013-10-16 01:24:00,
2013-10-15 21:39:00,79.2,76.3,29.80,WNW,292,0.0,-999.0,91,-99.99,,,0.00,Acu-Link.com,2013-10-16 01:39:00,
2013-10-15 21:55:00,77.5,76.9,29.80,NW,315,0.0,-999.0,98,-99.99,,,0.00,Acu-Link.com,2013-10-16 01:55:00,
2013-10-15 22:10:00,78.4,77.8,29.81,West,270,0.0,-999.0,98,-99.99,,,0.00,Acu-Link.com,2013-10-16 02:10:00,
2013-10-15 22:25:00,76.8,76.2,29.81,West,270,0.0,-999.0,98,-99.99,,,0.00,Acu-Link.com,2013-10-16 02:25:00,
2013-10-15 22:40:00,77.9,77.3,29.81,WNW,292,0.0,-999.0,98,-99.99,,,0.00,Acu-Link.com,2013-10-16 02:40:00,
2013-10-15 22:56:00,76.5,75.9,29.81,WNW,292,0.0,-999.0,98,-99.99,,,0.00,Acu-Link.com,2013-10-16 02:56:00,
2013-10-15 23:11:00,75.6,75.0,29.80,WNW,292,0.0,-999.0,98,-99.99,,,0.00,Acu-Link.com,2013-10-16 03:11:00,
2013-10-15 23:26:00,78.6,78.0,29.81,WNW,292,0.0,-999.0,98,-99.99,,,0.00,Acu-Link.com,2013-10-16 03:26:00,
2013-10-15 23:41:00,75.4,74.8,29.81,WNW,292,0.0,-999.0,98,-99.99,,,0.00,Acu-Link.com,2013-10-16 03:41:00,
2013-10-15 23:57:00,74.3,73.7,29.80,WNW,292,0.0,-999.0,98,-99.99,,,0.00,Acu-Link.com,2013-10-16 03:57:00,